{"data":{"norad_id":52257,"intl_designator":"2022-039A","name":"DAQI-1","alt_names":[],"object_type":"PAYLOAD","status":"ACTIVE","operator":null,"country":"PRC","launch_date":"2022-04-15","launch_site_code":"TAISC","launch_vehicle":null,"mission":null,"orbit_class":"UNKNOWN","rcs_meters":null,"size_class":null,"mass_kg":null,"dimensions":null,"purposes":[],"wikipedia_slug":null,"has_3d_model":false,"image_url":null,"decayed_at":null,"tle_current":{"epoch":"2026-09-20T23:15:53.345952Z","epoch_age_seconds":80142,"freshness":"FRESH","line1":"1 52257U 22039A   26263.96936743  .00000117  00000+0  35542-4 0  9994","line2":"2 52257  98.1521 200.8600 0003224 339.8466  20.2605 14.57722877235897","mean_motion":14.57722877,"eccentricity":0.0003224,"inclination_deg":98.1521,"raan_deg":200.86,"arg_perigee_deg":339.8466,"mean_anomaly_deg":20.2605,"bstar":3.5542e-5,"rev_number":23589,"period_min":98.784208076883,"perigee_km":698.25401730717,"apogee_km":702.81834577463,"semimajor_km":7078.6731815409,"source":"CELESTRAK","updated_at":"2026-09-21T09:00:08.516380Z"}}}